Theta_e
315 315 314 316 318 320 321 322 325 324 325 322 317 321 320 319 322 318 320 319 319 321 319 321 320 320 322 322 325 328 330 331 330 330 333 333 329 330 330 330 329 329 331 330 330 331 334 334 333 332 330 327 325 322 320 319 318 319 320 320 318 317 315 314 312 311 309 310 318 322 323 326 327 327 328 328 327 321 310 311 313 311 318 324 325 325 324 324 322 323 326 322 314 313 312 312 312
315 314 314 316 319 320 322 324 330 329 325 319 316 321 319 318 320 320 322 320 321 322 322 322 321 322 322 322 323 323 327 329 326 329 334 331 331 332 330 330 329 330 331 329 330 332 334 335 334 332 330 327 325 322 320 319 319 319 320 320 320 319 318 316 314 313 311 310 317 323 325 327 328 328 328 328 326 320 310 309 309 311 321 324 324 325 323 323 322 322 324 318 312 313 312 311 311
314 314 315 318 321 322 323 324 329 328 322 318 319 321 319 318 321 322 320 319 322 323 323 322 321 323 322 327 329 324 328 331 330 332 333 332 332 331 331 330 329 331 331 330 330 332 334 334 334 332 329 326 325 322 321 320 319 318 319 320 320 319 319 318 317 315 314 312 314 320 321 322 325 325 324 323 320 313 308 309 308 314 322 324 324 324 323 323 322 322 322 318 314 314 314 312 311
314 315 317 320 323 324 327 330 331 327 321 320 320 321 323 323 323 321 317 320 324 322 320 320 323 323 325 333 332 328 332 335 334 333 333 332 332 331 331 330 330 331 332 332 331 332 333 333 333 332 328 326 325 323 322 320 320 319 319 319 320 319 319 320 319 318 316 314 313 315 315 319 326 326 324 324 321 314 311 310 307 315 323 324 325 325 323 322 321 320 320 320 318 315 314 313 313
314 315 318 321 324 324 325 326 327 325 320 322 321 321 329 327 322 318 316 320 321 319 320 322 327 325 326 330 327 328 334 336 334 333 332 332 332 331 331 330 330 331 332 332 332 332 332 332 332 331 328 326 325 324 323 321 320 320 319 319 320 321 320 320 320 320 318 316 313 312 314 320 327 328 327 328 328 323 318 315 309 312 321 324 325 324 322 321 322 323 324 322 316 313 313 314 316
314 317 320 320 322 322 322 319 320 324 320 323 323 323 328 323 317 317 316 318 318 319 319 321 326 326 327 328 328 329 332 334 334 332 332 333 333 331 331 331 330 331 332 332 332 332 331 331 330 331 329 326 325 325 324 321 321 320 320 319 320 321 322 321 320 321 321 319 316 313 313 318 324 327 328 328 329 329 325 322 313 309 316 321 322 321 320 320 321 322 326 323 315 313 315 316 317
315 319 320 322 322 318 325 326 322 324 318 318 325 326 323 317 315 316 317 318 318 318 319 321 323 325 328 328 329 330 331 332 331 332 333 334 333 332 332 331 330 330 331 332 332 332 331 330 329 330 328 326 325 325 324 322 322 321 320 319 320 322 323 323 322 321 321 320 318 315 313 314 319 324 326 328 328 329 327 324 317 309 310 315 318 318 318 319 318 318 321 319 313 313 316 317 318
318 321 321 326 326 321 326 325 322 324 316 313 319 322 318 316 315 316 317 318 318 318 319 322 321 323 326 325 327 329 331 331 330 332 334 334 334 333 333 331 331 330 330 331 332 332 332 330 329 329 328 326 324 325 324 322 322 322 321 319 319 321 321 323 324 323 322 321 319 317 315 314 315 318 322 324 324 324 324 323 317 309 307 310 312 313 315 316 315 315 315 314 313 315 316 317 319
319 321 321 324 327 328 327 319 317 320 319 317 316 318 317 316 316 315 316 316 317 318 319 321 319 320 323 325 329 329 329 331 331 332 334 335 335 334 333 333 332 330 329 330 332 332 332 331 330 329 328 326 324 324 324 322 323 322 323 321 319 319 320 321 323 324 324 322 320 318 317 315 314 314 315 316 317 317 319 321 316 308 307 307 308 310 310 311 310 310 312 313 314 316 316 317 319
319 321 319 324 329 326 322 318 320 320 318 319 316 317 317 316 316 315 316 315 316 317 319 319 318 319 323 328 331 329 330 332 332 333 335 335 335 334 334 334 334 332 329 329 332 332 332 332 330 330 329 327 324 324 323 323 323 323 323 322 320 319 319 321 322 322 323 322 320 319 318 317 315 313 312 311 311 311 313 318 316 308 306 307 307 308 307 308 309 309 312 314 314 316 316 317 318
320 320 318 327 330 321 320 321 321 322 318 317 315 316 317 316 316 314 315 315 316 317 318 318 319 321 323 328 330 329 330 332 332 333 334 335 335 334 333 334 334 333 331 329 329 331 332 332 331 330 330 328 325 324 324 323 324 324 324 323 321 319 320 321 322 321 321 322 320 319 319 318 317 315 313 310 309 308 307 312 313 308 306 307 307 307 307 307 308 310 313 315 315 316 316 317 318
319 323 330 333 328 323 325 323 320 321 318 318 317 316 317 315 315 314 315 316 316 317 317 318 320 321 324 326 328 329 331 333 333 332 332 334 334 333 334 334 334 334 333 331 329 329 330 330 330 330 330 328 325 324 324 323 324 324 323 324 322 319 319 320 321 320 321 321 320 319 319 319 318 317 315 312 309 308 306 308 309 307 306 307 306 307 306 306 308 311 314 315 316 316 316 317 319
319 324 334 327 322 324 324 321 320 320 318 319 317 315 317 314 314 316 315 316 316 316 316 318 319 319 323 323 325 329 332 333 333 334 331 332 334 334 335 335 335 335 334 334 332 329 329 328 328 329 329 328 326 325 324 324 324 324 324 324 323 321 319 320 321 321 321 321 320 319 319 319 318 318 316 314 310 308 306 306 307 306 306 306 306 306 305 307 310 313 315 316 316 316 316 317 318
321 323 329 324 318 322 321 320 319 318 321 322 316 314 317 314 315 316 316 317 316 316 316 318 319 319 322 322 324 326 329 334 335 335 332 331 332 332 335 337 336 335 335 335 335 333 331 329 328 328 328 327 327 325 325 324 324 324 324 324 324 323 321 320 321 321 321 321 321 320 320 319 318 318 317 316 312 308 306 306 306 306 306 306 306 305 305 309 312 314 315 316 316 316 316 316 317
321 320 330 329 318 318 319 320 319 320 322 320 316 314 316 314 316 316 316 319 316 315 316 318 319 319 320 322 324 320 322 332 335 335 334 333 333 332 334 336 336 336 336 335 336 335 333 331 328 328 328 327 327 326 325 324 325 324 325 325 325 324 323 321 321 321 322 322 322 321 321 320 319 318 318 317 314 310 306 306 306 306 306 305 305 305 307 311 314 315 315 316 316 316 315 315 315
321 319 327 327 318 317 317 318 319 320 319 316 315 315 315 314 316 316 316 317 316 315 316 318 319 319 318 320 320 314 317 330 335 335 334 334 335 334 334 335 336 336 336 336 336 336 335 333 330 328 329 328 328 327 326 325 325 325 325 325 325 325 324 323 322 322 323 323 323 323 323 322 320 318 318 318 316 312 308 306 306 305 305 305 304 304 308 313 315 316 316 316 316 315 315 314 313
317 321 328 324 319 319 318 318 318 321 321 315 313 314 315 315 314 316 316 316 316 315 316 317 318 318 318 319 318 314 316 326 333 334 334 335 335 335 334 335 336 335 335 336 336 337 335 335 332 330 330 330 330 329 328 327 326 326 325 326 326 325 325 324 323 323 323 323 324 324 324 324 322 319 318 317 318 315 310 306 305 305 305 304 304 305 310 315 316 317 316 316 316 315 314 313 312
320 330 331 322 322 322 320 322 316 317 321 314 313 314 315 316 314 314 316 315 315 315 315 316 318 317 317 320 318 314 314 320 329 332 333 333 334 334 334 335 334 331 331 333 335 336 336 335 334 332 331 331 331 331 331 329 327 327 326 326 327 326 326 325 325 324 324 324 324 324 324 324 323 321 318 318 318 317 312 308 306 305 304 304 304 306 311 315 317 318 317 316 316 315 314 313 312
321 329 326 325 331 321 316 318 313 314 317 314 313 314 315 316 314 315 316 315 315 316 315 317 318 318 317 318 318 315 314 316 323 327 329 330 330 331 332 332 332 328 327 329 332 334 335 334 334 334 333 333 332 332 332 332 330 329 328 327 327 327 327 326 326 325 325 325 324 324 324 324 324 322 319 318 318 318 315 311 309 307 306 305 305 308 312 316 317 318 318 317 316 316 315 313 312
317 322 324 329 328 316 313 314 312 314 315 313 313 313 314 315 315 315 316 314 314 315 316 316 317 318 316 317 317 315 314 314 318 321 323 324 325 326 327 327 327 325 323 323 326 331 333 332 333 334 334 334 334 333 333 333 332 331 330 329 328 328 327 327 327 326 326 326 326 325 325 326 325 323 321 318 317 319 317 313 312 311 310 308 307 309 313 316 318 318 319 318 317 316 315 313 311
315 321 328 324 316 314 314 313 314 315 314 314 313 313 314 314 315 314 314 315 315 315 315 316 316 316 316 315 316 315 313 314 316 318 320 321 322 323 322 321 320 320 320 322 324 328 330 330 330 331 333 334 334 334 334 334 333 333 331 330 330 329 328 328 327 327 327 327 327 327 326 327 327 325 322 319 317 318 319 317 314 314 313 311 309 311 315 317 318 319 319 319 318 317 316 313 311
315 316 319 315 311 315 315 313 315 314 314 314 312 314 314 314 315 314 315 318 318 315 316 316 316 315 315 315 315 315 314 314 315 316 318 319 320 321 320 320 320 320 321 321 321 324 326 327 327 329 332 333 333 333 333 334 334 334 333 332 331 330 330 329 328 328 328 328 328 328 327 327 328 327 324 320 318 318 320 319 316 315 314 312 312 314 316 318 318 319 319 320 320 319 318 315 311
317 315 311 312 313 315 314 314 315 314 314 314 312 314 314 313 314 314 314 317 317 315 316 316 315 315 314 315 315 315 315 314 314 314 316 317 317 318 317 318 319 318 318 318 318 321 323 324 326 327 329 330 332 332 332 333 333 334 334 333 332 332 331 330 330 329 329 329 328 328 328 328 328 328 326 323 320 318 320 320 318 316 315 314 315 317 318 318 319 319 319 320 320 321 320 317 312
319 317 311 313 313 313 314 314 314 314 315 314 313 314 314 314 315 313 313 315 315 314 316 315 315 315 314 315 315 314 315 314 314 314 314 315 315 315 315 316 316 317 317 316 317 318 319 321 322 324 326 327 330 331 331 332 332 333 334 334 334 333 332 332 331 331 330 329 329 330 329 328 328 328 328 326 323 321 320 320 320 319 317 316 317 318 319 319 319 319 320 320 321 321 321 318 312
317 317 312 312 313 313 314 314 314 314 315 314 314 314 313 314 314 312 313 315 314 314 316 316 315 315 314 315 315 315 315 314 315 314 314 314 314 315 316 316 316 317 316 315 316 316 316 318 320 321 322 324 326 329 330 331 331 332 333 334 334 333 333 333 332 332 331 330 330 330 330 330 329 328 328 328 326 323 322 321 320 320 319 317 318 319 319 319 320 320 320 321 321 321 321 319 313
314 314 312 312 312 313 313 314 314 314 314 314 314 314 313 313 313 315 315 315 315 315 316 316 316 315 315 315 315 315 315 315 315 314 315 314 315 315 316 316 316 316 315 315 315 315 315 317 318 319 319 321 323 326 328 329 330 331 331 332 333 333 333 333 333 333 332 331 330 330 331 331 330 329 328 329 329 326 324 322 321 321 321 319 319 319 319 319 319 320 320 321 321 321 321 319 313
313 312 312 312 312 313 313 314 314 314 314 314 316 315 313 313 314 317 316 315 315 315 316 316 316 316 315 315 315 315 315 315 315 315 315 315 315 315 315 315 315 315 314 315 314 314 315 315 316 317 318 320 321 323 325 326 328 328 329 330 332 332 332 332 333 334 333 331 331 331 331 331 331 330 329 329 329 329 327 325 324 323 322 321 320 319 319 319 319 319 320 320 321 321 320 320 314
313 313 314 313 312 313 313 313 313 314 314 313 315 314 312 313 315 317 315 315 315 315 316 316 316 316 316 316 316 316 316 316 315 315 315 315 315 315 315 315 315 315 315 314 314 314 314 314 315 315 316 318 320 321 323 324 325 326 326 328 330 330 330 330 331 333 333 332 331 331 331 331 330 330 329 329 329 329 329 328 327 325 323 322 321 320 319 319 319 319 320 320 321 321 320 319 315
313 314 317 315 315 315 312 312 313 313 315 314 313 313 314 315 316 316 314 314 315 315 315 315 315 315 315 316 316 316 316 316 316 315 315 315 315 315 315 315 315 314 314 314 314 314 314 314 314 315 315 316 316 318 320 321 322 325 325 325 327 329 329 329 328 330 331 332 332 331 330 330 330 329 329 328 328 328 327 327 327 327 325 324 322 320 319 319 320 319 320 320 321 321 320 318 315
314 314 317 319 317 316 311 311 313 313 314 313 311 314 319 318 314 313 314 314 314 314 315 315 316 316 315 315 315 316 316 316 316 316 316 315 315 315 315 315 315 314 314 314 314 314 314 314 314 314 315 314 314 315 316 317 318 322 323 323 325 328 329 328 327 328 329 331 331 331 330 329 329 328 328 328 328 327 326 326 326 326 326 325 324 322 320 319 319 320 320 321 321 321 319 317 315
316 312 318 321 315 317 315 310 313 314 314 313 311 314 320 319 313 312 313 313 313 314 315 315 315 315 315 316 315 316 316 316 316 316 316 315 315 315 315 315 314 314 314 314 314 314 314 314 314 314 314 314 314 314 315 315 316 317 320 321 321 324 328 329 329 328 328 329 331 331 330 329 328 328 328 328 328 328 327 327 327 326 326 326 325 325 323 320 319 319 319 320 321 321 319 317 315
320 314 320 319 312 319 319 310 311 314 314 313 312 315 320 319 313 313 314 313 313 314 315 315 315 315 315 315 316 315 315 315 315 315 315 315 315 315 315 315 315 314 314 314 314 314 314 314 314 314 314 315 314 314 315 315 316 316 319 321 320 319 322 326 328 327 325 327 329 330 330 328 327 327 328 328 329 329 329 329 328 328 328 327 326 326 326 324 321 319 318 319 320 321 320 317 315
323 317 321 320 315 318 318 312 310 311 314 313 312 315 320 319 314 314 314 314 314 313 314 315 315 315 315 315 315 315 315 315 315 315 316 315 315 315 315 315 315 315 315 314 314 314 314 314 314 314 314 315 315 315 316 316 316 316 318 322 323 323 322 323 324 324 325 326 326 328 329 330 329 328 327 327 329 330 330 330 330 330 329 329 327 326 326 326 324 320 317 318 319 320 320 319 316
320 318 319 320 318 317 318 317 311 309 313 315 314 315 320 319 313 314 315 313 314 313 314 315 315 315 315 316 315 315 315 315 316 316 316 316 315 316 315 315 315 315 315 315 315 315 315 315 314 314 315 315 316 316 317 317 318 318 318 320 323 325 325 326 327 327 330 331 329 327 328 330 331 332 330 327 327 329 329 330 331 330 330 329 328 326 325 325 325 322 318 317 318 319 319 319 317
318 317 317 316 316 315 318 320 314 312 315 315 316 316 319 320 313 313 315 314 313 314 314 314 315 315 315 316 315 316 316 315 316 316 316 316 316 316 316 316 316 315 316 316 316 316 315 315 315 315 315 316 317 317 318 319 320 320 320 321 322 324 323 325 329 329 330 333 334 332 329 327 328 331 331 329 328 329 327 328 330 331 330 330 329 327 326 325 325 324 322 319 318 318 318 317 317
319 319 322 321 319 317 318 319 312 311 316 317 317 318 319 321 316 313 315 314 312 313 314 314 314 315 314 315 315 315 315 315 315 315 316 316 316 316 316 316 316 316 316 316 316 316 316 316 316 316 316 316 317 319 320 320 321 321 322 322 322 322 322 323 325 325 325 329 332 332 331 330 329 329 329 328 331 332 329 328 330 330 330 331 330 328 327 325 324 325 326 322 319 317 316 315 315
317 319 324 323 320 319 316 317 312 309 315 318 316 318 318 319 318 313 312 313 310 311 312 313 314 314 314 314 314 314 314 315 315 315 316 316 316 316 316 316 316 317 316 316 316 316 316 316 316 316 316 316 317 318 319 319 320 320 321 321 320 320 322 322 321 322 323 325 327 327 327 330 332 331 330 330 332 332 331 329 329 330 330 330 330 329 328 326 324 324 325 324 320 317 316 315 314
317 319 322 320 318 320 315 315 315 309 313 317 314 317 317 318 318 312 309 311 310 311 312 313 314 314 314 314 314 315 314 314 315 315 315 316 316 317 316 316 316 317 317 316 317 316 317 316 316 317 316 317 317 317 318 318 319 319 319 319 318 319 320 320 320 321 323 325 325 324 324 326 327 328 329 329 330 330 330 329 328 330 331 329 329 328 327 326 324 323 324 324 321 317 316 316 316
321 319 320 320 318 318 315 314 316 312 313 318 318 318 318 317 317 312 308 310 311 312 312 313 314 313 313 314 314 314 314 314 314 314 315 315 315 316 316 317 316 316 317 317 317 317 317 316 317 316 316 317 316 316 317 318 319 320 321 321 321 321 320 319 319 321 324 326 325 324 325 325 326 327 327 327 328 330 330 330 330 330 330 329 328 327 327 326 325 325 325 324 322 318 315 315 316
323 321 320 320 317 319 319 315 315 313 312 316 319 317 316 316 318 316 310 308 310 311 312 312 313 313 314 314 314 314 314 314 314 314 314 314 314 315 316 316 316 316 316 317 317 317 317 316 317 316 317 316 316 316 316 317 320 322 324 323 323 322 321 320 320 321 323 324 325 325 326 327 326 326 327 327 326 326 327 327 328 327 326 326 325 325 327 327 326 326 326 324 323 321 318 316 316
320 327 330 326 322 321 319 315 316 315 312 315 316 315 321 325 325 326 317 308 308 310 311 313 314 315 315 315 315 315 315 315 315 315 315 315 315 315 315 316 316 316 316 316 316 316 317 317 317 317 317 317 317 317 316 317 320 322 324 324 323 323 321 320 320 320 320 321 322 323 324 326 326 326 327 328 326 324 323 323 325 323 322 323 324 325 328 327 326 327 327 325 323 323 321 319 317
315 324 330 327 329 324 318 318 320 320 316 313 311 314 330 334 327 328 324 314 311 310 307 310 314 315 313 314 315 315 316 316 315 315 315 315 315 315 315 315 316 316 316 316 317 317 317 317 317 317 317 317 317 317 317 317 318 319 321 321 321 321 320 319 318 318 317 318 319 320 322 323 324 324 324 326 328 326 322 321 325 326 325 325 325 326 328 326 326 327 326 325 323 322 321 319 319
314 316 319 321 328 324 319 319 318 320 316 310 311 315 321 325 321 321 321 318 317 313 308 309 313 314 312 313 314 313 315 316 316 315 315 316 316 315 316 316 316 316 316 316 317 317 317 317 317 317 317 317 317 317 317 317 317 317 318 318 318 318 318 317 317 318 318 318 319 319 320 321 321 321 321 323 324 326 326 324 324 324 325 327 325 324 325 325 325 326 326 325 324 322 321 321 321
314 315 318 323 326 323 324 324 321 320 315 315 321 320 314 317 318 317 318 319 320 320 317 313 311 313 313 313 314 313 314 315 315 315 316 316 316 316 316 316 316 316 317 317 317 317 317 317 317 317 317 317 317 317 316 316 316 317 317 317 317 317 317 317 317 318 319 319 319 319 319 319 319 319 320 320 319 322 326 328 327 323 322 325 326 325 325 325 325 325 325 325 323 322 322 323 322
316 314 319 323 324 326 330 330 327 319 312 318 325 315 313 321 322 319 316 316 318 319 321 315 310 312 314 313 314 314 314 314 314 315 317 317 317 317 317 317 317 317 317 317 317 318 318 318 318 317 317 317 317 317 316 316 316 316 316 317 316 316 316 316 317 317 318 318 317 317 317 317 317 318 319 319 320 322 323 325 327 325 322 323 325 326 325 325 325 325 325 325 324 322 321 322 322
314 311 317 319 321 326 328 327 324 315 312 324 324 313 312 319 325 325 316 314 320 321 321 314 308 312 314 314 314 314 315 314 315 317 317 317 316 317 317 317 317 317 317 317 317 318 318 317 317 317 317 317 316 316 316 316 315 315 315 315 315 315 315 315 316 316 316 315 315 315 315 315 316 317 317 318 319 322 324 324 324 324 323 322 322 324 325 325 325 324 323 325 325 323 321 321 322
310 316 320 318 322 326 328 328 321 311 318 328 320 313 312 312 324 329 317 316 320 319 322 317 309 312 315 315 315 314 315 315 316 318 317 317 317 317 318 317 318 318 317 317 317 317 317 317 317 317 317 317 316 316 316 315 315 315 315 315 314 314 315 314 315 315 314 314 314 313 313 314 314 314 315 315 316 317 319 322 323 323 323 322 322 322 322 323 324 323 322 323 324 323 322 321 321
312 323 323 317 321 323 325 328 318 312 324 324 314 313 312 311 322 327 320 319 317 314 321 322 312 312 316 317 316 315 316 317 317 318 317 316 317 317 318 318 318 318 317 318 318 317 317 317 317 317 317 317 316 316 316 316 316 315 315 315 315 315 314 314 314 314 314 314 313 313 313 313 313 313 313 313 313 313 313 315 318 320 321 322 321 321 320 321 322 322 322 322 323 323 323 321 320
317 320 320 317 320 318 321 327 319 317 322 315 313 315 312 313 318 317 318 320 317 310 312 316 312 311 316 318 317 317 318 318 318 317 316 316 317 317 317 318 318 318 317 317 318 318 318 317 317 317 317 317 316 316 316 316 316 316 316 315 315 315 314 314 314 314 314 313 313 313 313 312 312 312 312 312 312 311 311 311 312 316 318 319 320 319 319 319 320 321 322 323 323 323 322 321 320
316 316 319 320 319 314 319 323 316 316 319 313 311 314 315 317 315 313 316 313 312 309 308 311 312 313 316 317 317 318 318 317 317 316 316 315 316 316 317 317 317 317 317 318 318 317 318 317 317 317 317 317 317 317 316 317 317 316 316 316 316 315 315 315 314 314 314 313 313 313 313 313 312 312 312 311 311 311 311 310 310 312 314 315 317 317 317 317 318 321 322 322 322 321 321 320 320
315 315 315 317 323 322 320 321 319 320 321 315 310 314 322 321 313 313 313 308 309 311 310 311 312 313 316 315 317 318 317 318 316 316 316 315 316 316 316 317 317 317 318 317 317 317 316 317 316 317 317 317 317 317 317 317 317 316 316 316 316 316 315 315 314 314 314 313 313 313 313 313 312 312 312 311 311 310 311 310 310 310 311 312 313 315 316 316 317 320 321 321 320 318 318 318 319
314 312 311 313 321 325 318 314 318 318 317 317 313 317 324 320 313 313 309 306 309 310 311 313 312 314 315 314 316 316 316 317 315 316 316 315 316 316 316 316 316 317 317 317 317 316 316 316 316 317 317 317 317 317 317 317 317 317 316 316 316 316 315 315 315 314 314 313 313 313 313 313 312 312 312 311 311 310 310 310 310 309 310 310 311 313 314 316 317 317 318 317 316 316 316 318 319
314 311 316 317 315 322 319 309 310 311 311 316 316 318 321 315 314 317 312 311 313 311 311 311 312 314 313 315 316 314 314 314 313 315 314 315 316 316 316 316 316 317 317 317 317 316 317 316 316 317 317 318 317 317 317 317 317 317 317 317 316 316 315 315 315 314 314 313 313 313 313 313 312 312 311 311 310 311 310 310 310 309 310 311 310 311 313 315 315 314 315 316 317 318 319 319 319
317 317 319 315 309 317 320 313 316 316 314 318 315 314 318 315 316 320 314 312 315 316 313 309 311 314 313 315 315 312 313 313 312 314 313 315 315 315 316 316 316 317 316 317 317 316 316 316 317 318 318 318 317 317 318 317 317 317 317 317 316 316 316 315 315 315 314 314 314 314 313 313 312 312 311 311 310 311 310 310 310 309 309 310 310 310 312 313 313 314 316 318 319 319 319 320 319
315 317 313 313 315 318 316 313 318 318 314 320 319 313 313 313 316 320 315 313 319 320 317 313 312 314 314 315 314 312 313 313 313 315 315 316 316 315 316 316 316 317 316 317 316 316 316 317 318 318 318 318 317 318 318 317 318 318 317 317 316 316 316 315 315 315 314 315 314 314 313 313 313 311 311 311 310 311 310 309 309 308 309 311 312 314 314 315 315 316 318 319 319 319 318 319 319
310 311 308 314 321 319 317 315 316 316 314 318 320 318 317 315 315 318 314 316 322 323 322 317 312 313 315 314 313 314 314 314 315 316 317 317 317 317 317 317 317 317 317 317 317 317 317 317 318 318 318 318 318 318 318 317 318 317 317 317 316 316 316 315 315 315 315 315 315 314 314 313 312 312 311 311 310 310 310 309 309 309 309 311 313 315 316 316 317 317 317 318 318 318 318 318 318
312 314 312 314 316 315 317 315 314 318 318 318 318 317 321 321 316 317 316 318 321 321 322 318 310 312 314 312 314 316 314 315 316 316 317 317 317 318 317 318 318 317 317 317 317 317 317 317 317 317 317 318 317 318 317 317 317 317 317 317 316 316 316 315 315 315 315 315 315 314 314 313 313 312 311 311 311 310 309 309 309 309 309 310 311 312 313 314 315 315 316 316 316 317 317 318 318
314 314 314 315 315 314 316 314 312 315 315 318 318 313 319 324 316 316 318 317 315 311 311 312 311 312 314 313 315 316 315 316 317 316 316 316 317 317 317 317 317 317 317 317 317 317 317 317 317 317 318 318 318 318 317 317 317 317 317 317 316 316 316 315 315 315 316 315 315 315 314 314 313 313 312 311 311 310 309 308 308 309 310 311 312 313 313 314 315 315 316 316 317 317 318 318 317
Wind_Speed
3 2 2 1 1 0 2 2 1 2 4 2 0 2 2 2 2 3 3 1 1 2 2 6 10 14 8 6 9 8 7 6 6 4 3 9 19 20 19 21 20 19 18 18 19 18 17 15 13 11 10 10 9 10 11 11 12 12 13 14 15 15 16 16 16 15 14 14 14 14 15 16 17 17 17 15 14 13 13 13 14 16 17 17 17 16 15 16 16 17 16 15 14 15 17 17 17
2 1 0 1 1 0 1 2 1 3 5 2 2 3 2 2 1 5 6 3 4 8 13 15 14 13 9 10 10 9 6 2 5 6 10 20 24 21 19 20 19 19 19 19 19 18 18 15 13 12 10 10 9 9 10 11 11 11 12 13 14 14 15 16 16 16 15 15 14 14 15 15 16 15 15 14 13 12 12 12 13 14 16 16 16 16 15 16 16 17 16 15 14 15 16 17 18
0 1 2 2 1 1 1 3 1 1 4 3 4 3 1 1 5 6 6 7 13 18 18 15 11 8 6 6 6 4 3 3 9 14 19 25 24 23 21 19 19 18 19 19 18 18 17 16 14 12 11 10 9 8 9 10 10 11 11 12 13 13 14 15 16 16 16 16 15 14 15 17 17 16 15 13 11 11 12 12 12 14 15 16 16 16 16 15 16 16 16 15 15 15 15 17 19
2 2 2 2 1 1 3 3 2 4 3 4 3 4 2 5 7 6 5 12 18 14 8 7 6 5 3 5 5 4 5 7 15 20 24 25 22 23 22 20 19 18 18 19 18 17 17 16 14 12 10 9 8 7 8 9 10 10 10 11 11 12 13 13 14 15 16 16 16 15 17 20 19 16 15 14 11 10 12 12 12 13 15 16 16 15 15 15 16 15 15 15 14 15 16 18 19
3 3 3 1 0 1 3 3 2 4 4 5 2 5 5 6 7 5 6 13 13 5 3 5 4 4 6 6 3 3 6 11 17 20 23 23 21 22 22 20 19 18 18 18 18 17 16 16 14 13 10 9 7 6 7 8 9 10 10 10 10 11 12 12 13 14 15 15 16 15 17 18 18 15 14 14 10 8 10 11 11 12 14 15 15 14 14 15 15 15 15 14 14 15 16 17 18
4 4 2 1 1 2 2 2 2 2 5 5 4 5 5 7 7 8 8 9 6 4 6 5 6 7 7 6 4 7 12 12 17 21 23 23 22 22 22 20 19 18 18 17 17 16 16 15 14 12 10 9 7 6 7 7 8 9 9 9 9 10 11 11 12 13 14 15 15 14 15 16 17 16 13 13 10 7 8 9 8 9 11 13 13 12 13 14 14 15 15 14 13 15 16 18 18
4 4 1 1 3 2 2 3 4 3 3 5 5 5 6 8 9 9 8 6 3 5 6 6 11 10 5 5 6 10 11 9 16 21 22 22 22 22 21 20 19 18 18 17 17 16 16 14 13 12 10 9 7 7 6 6 7 7 8 8 8 9 9 10 11 12 12 13 14 13 13 13 14 15 14 12 9 7 7 7 6 7 8 9 10 11 12 12 12 13 13 12 13 15 17 18 18
5 3 1 2 2 4 3 3 3 3 2 4 4 5 10 11 12 9 6 5 3 5 7 11 12 6 3 4 5 9 8 9 16 20 21 21 23 22 21 21 19 18 18 17 17 16 16 15 14 12 10 9 8 7 6 6 6 6 6 7 8 8 8 8 9 9 10 11 12 12 12 12 12 12 12 11 9 7 6 6 6 6 6 7 8 9 10 11 11 11 11 11 13 15 17 18 18
6 2 2 2 2 3 3 2 1 2 2 4 3 6 12 13 12 8 4 3 4 7 10 13 6 1 6 4 6 9 8 12 16 20 21 21 23 22 21 21 19 19 18 17 18 17 17 16 14 12 11 10 9 8 7 7 6 6 6 6 7 7 7 7 8 8 8 9 10 11 11 10 10 10 9 9 7 6 7 7 6 6 6 6 6 7 9 10 10 10 10 11 12 15 17 17 17
5 2 2 3 2 3 2 1 1 1 3 3 3 7 13 14 11 7 5 4 6 8 10 10 2 4 10 6 7 9 11 14 17 20 20 21 23 22 21 19 18 18 18 18 18 17 17 16 15 13 11 10 9 9 8 7 6 6 6 6 7 7 7 7 7 7 7 7 8 9 9 9 9 8 8 7 6 5 7 7 5 6 6 6 6 6 8 9 9 9 10 11 13 14 15 15 16
3 3 4 4 3 2 2 2 3 3 3 3 2 7 13 15 10 5 5 6 7 7 9 7 3 9 10 5 8 11 14 15 17 19 19 21 21 20 20 18 18 17 17 18 17 17 16 16 15 13 12 10 9 9 8 7 6 6 5 5 6 6 7 7 7 6 6 6 6 7 8 8 8 8 7 6 5 4 6 7 7 7 7 6 6 6 8 9 9 10 11 12 13 14 14 14 14
2 2 4 3 2 3 4 3 3 5 4 3 2 6 13 14 8 6 7 8 7 5 8 6 6 12 7 2 8 13 15 15 17 17 17 20 20 20 20 18 18 16 16 17 16 16 16 16 15 14 12 10 9 9 8 7 6 5 4 4 5 6 6 6 6 6 6 6 5 6 7 7 7 7 6 6 6 5 6 7 8 9 8 6 6 7 7 9 9 10 12 13 13 12 12 12 12
4 2 5 2 3 3 4 4 3 2 4 3 4 7 13 12 8 12 12 9 7 6 6 6 10 11 4 2 8 15 17 16 18 17 16 19 20 19 19 18 17 16 16 16 16 16 16 16 15 14 13 11 10 10 9 8 7 6 5 4 5 5 6 6 5 5 5 5 5 5 6 6 6 6 6 5 5 6 6 7 8 9 8 7 7 7 8 9 9 10 11 12 12 11 11 10 10
4 4 5 2 2 3 5 3 2 2 3 6 4 8 14 10 9 16 14 8 6 7 5 7 13 8 3 4 7 18 19 18 20 18 17 17 19 18 18 18 17 17 17 16 15 15 16 15 15 14 13 13 12 11 11 10 9 8 6 5 5 5 5 5 5 5 5 5 5 5 5 5 5 5 5 5 5 5 6 7 8 8 8 8 8 8 8 9 9 10 10 11 11 11 10 10 9
5 4 4 3 2 1 4 2 3 5 4 4 6 11 14 9 8 15 16 9 6 8 8 10 14 4 4 7 6 18 21 21 23 20 19 17 18 18 18 19 17 18 17 16 15 15 16 16 16 15 14 14 13 12 12 11 10 9 8 7 7 6 6 6 6 5 5 5 5 5 5 4 4 4 4 5 5 5 6 7 8 8 8 8 8 8 9 9 9 9 9 9 10 10 9 9 9
5 3 4 3 1 2 3 2 4 3 5 5 9 13 11 6 10 15 13 9 7 11 10 10 15 5 5 8 3 14 22 23 25 22 21 20 19 19 19 20 18 19 17 17 17 16 16 16 17 16 15 15 14 13 12 12 12 11 10 9 8 7 7 6 6 6 5 4 4 4 4 4 4 4 4 4 5 5 5 6 7 8 8 8 8 9 9 9 9 9 8 8 8 8 8 8 8
5 3 4 2 2 3 4 4 5 3 5 6 10 15 9 3 11 13 9 8 11 14 10 9 16 10 7 8 4 14 23 24 27 25 24 23 23 22 22 23 21 21 19 19 18 18 18 17 18 17 17 16 15 14 13 13 12 12 12 11 10 9 8 7 7 6 5 4 3 3 3 3 3 3 4 4 5 5 5 6 7 8 8 8 8 9 10 9 9 8 8 8 7 7 7 7 7
4 3 3 2 3 4 5 7 8 4 4 9 13 17 11 6 10 12 7 7 11 13 10 11 15 11 8 8 6 16 24 25 28 28 27 27 26 26 26 27 26 25 23 22 21 20 20 19 19 19 18 17 17 16 15 14 14 13 13 13 12 11 10 9 8 7 6 5 4 3 2 2 3 3 4 4 5 5 5 6 7 7 8 8 8 9 9 8 8 7 7 7 7 7 5 5 6
3 3 3 3 5 4 5 7 9 4 3 11 15 16 14 10 13 14 7 5 10 9 7 10 13 11 9 9 9 18 24 25 28 28 28 28 28 28 28 30 29 27 25 24 23 22 22 21 20 20 20 19 18 17 16 16 15 15 14 14 14 13 12 11 10 8 7 6 5 4 3 3 3 3 4 4 6 6 6 6 7 7 7 8 8 8 8 8 7 7 6 6 6 6 5 4 5
2 3 2 5 7 4 3 5 9 7 5 11 14 12 11 12 14 13 8 6 6 8 10 11 12 14 12 10 13 20 24 24 26 26 27 27 27 27 27 28 27 25 24 23 23 24 23 23 22 22 21 21 20 19 19 18 17 16 16 15 15 15 14 13 12 10 9 8 7 6 5 5 4 5 4 5 6 7 7 7 7 7 7 7 7 8 8 8 7 7 6 5 5 5 4 4 4
2 4 3 5 6 3 4 3 5 9 8 12 14 10 8 11 13 11 11 7 3 11 17 16 15 17 15 13 16 22 24 24 26 26 26 26 26 26 25 24 22 21 22 23 24 24 24 23 22 22 22 22 22 21 21 20 19 18 17 17 17 16 16 15 14 13 12 11 9 8 7 6 6 6 6 6 7 8 7 8 8 8 7 8 8 8 8 8 8 7 6 5 5 4 4 3 4
3 2 2 4 6 2 2 1 2 7 9 12 13 10 8 11 11 12 14 9 7 14 19 18 15 15 16 15 18 22 24 24 25 25 26 26 26 26 25 24 22 22 23 23 23 23 24 24 23 22 23 23 23 22 22 21 21 20 19 19 18 18 17 17 16 15 14 14 12 10 9 8 8 8 8 7 8 8 8 8 9 9 9 9 9 9 9 9 8 7 7 5 5 4 3 4 4
3 1 1 3 4 2 2 1 3 7 12 14 12 9 9 10 8 11 16 14 12 11 14 17 15 14 16 16 18 21 23 24 24 24 24 25 25 24 23 23 23 22 22 22 21 22 23 24 24 23 23 24 23 23 23 23 22 21 21 20 20 20 19 19 17 16 15 15 15 13 11 10 9 9 9 9 8 9 9 9 9 9 10 10 10 10 10 9 9 8 7 6 5 4 4 4 5
3 2 1 3 3 3 4 3 5 8 13 14 11 9 8 9 6 7 16 20 15 8 8 14 16 15 16 18 18 19 20 22 22 22 21 22 22 21 21 22 22 22 22 21 21 22 22 23 24 24 24 24 24 24 24 24 24 23 23 22 22 21 21 20 19 17 17 16 16 15 13 12 10 10 10 10 9 10 10 10 11 10 10 11 11 11 11 10 10 9 8 7 6 5 5 5 6
2 3 4 4 3 4 6 6 8 8 9 11 10 7 5 7 4 4 14 19 16 12 9 10 15 17 17 18 19 19 20 21 21 22 22 22 22 23 25 24 24 25 24 22 22 22 22 22 23 24 24 24 24 25 25 25 25 25 24 24 23 23 22 21 20 19 18 18 17 16 15 14 13 11 11 12 11 11 11 11 11 11 11 12 12 12 11 11 11 10 9 8 7 7 6 6 7
3 5 7 6 4 4 6 6 8 8 8 9 8 3 2 5 2 6 14 16 15 14 11 10 13 17 19 19 19 20 20 21 21 22 22 22 24 27 27 26 26 26 24 23 23 23 22 23 24 25 24 25 25 25 26 26 26 26 26 26 25 25 24 23 22 21 20 19 18 17 16 16 15 13 13 13 13 12 11 12 12 12 12 13 13 13 12 12 11 11 10 9 8 8 8 8 8
7 11 10 8 5 3 3 5 7 7 6 6 7 2 1 4 1 5 8 10 14 16 15 12 11 13 16 18 19 21 21 21 21 21 22 24 26 26 26 27 28 26 25 25 24 23 23 24 25 25 25 25 26 27 27 27 27 28 27 27 27 26 25 25 24 23 23 21 20 19 18 17 17 17 15 15 15 14 14 13 12 13 13 14 14 14 13 13 13 12 11 10 9 10 9 9 9
12 14 10 6 4 3 2 5 5 5 4 3 5 1 2 2 2 7 6 5 10 16 18 16 15 14 14 15 17 20 21 20 22 24 24 25 24 24 24 25 25 24 25 24 23 24 24 24 25 25 26 26 27 28 28 29 29 29 28 28 29 28 27 26 25 25 25 23 22 21 20 19 20 20 19 17 17 16 16 15 14 14 14 14 14 15 15 15 15 14 13 12 12 11 10 11 11
11 10 5 5 6 3 1 3 3 3 3 3 5 1 4 3 7 9 6 5 6 12 18 19 19 18 16 16 17 19 20 20 24 27 26 25 23 23 23 22 22 23 23 22 23 25 25 25 25 25 26 27 28 28 29 30 30 30 30 29 29 30 29 28 27 26 26 25 24 23 22 22 22 22 20 19 18 18 17 17 15 14 14 15 15 16 16 16 16 16 15 14 14 13 12 12 12
5 4 4 2 6 3 1 1 2 4 3 3 5 1 6 8 12 10 7 7 5 9 16 19 20 20 19 18 18 19 20 22 26 26 25 25 24 24 24 22 23 24 23 23 25 25 25 25 26 26 27 27 28 28 29 29 29 30 31 30 30 31 31 30 29 27 27 27 27 25 25 24 22 22 21 19 20 19 19 18 16 14 14 15 15 16 17 18 18 18 17 16 16 15 14 14 14
2 2 3 2 1 4 4 1 4 5 2 3 5 2 6 8 8 5 9 12 9 11 15 18 21 21 21 21 21 21 21 23 25 25 25 25 25 26 25 24 24 25 25 26 26 25 25 25 26 27 27 28 28 28 29 29 29 29 30 29 29 29 31 31 30 29 29 28 28 28 27 26 24 23 23 22 21 20 20 20 18 15 14 15 15 15 17 19 20 20 19 18 17 16 16 15 16
3 2 1 3 3 5 7 1 5 5 2 1 5 2 6 8 7 3 4 11 11 13 14 16 19 20 22 23 23 23 23 23 24 25 25 26 26 27 26 25 25 26 26 26 26 26 26 26 27 27 27 28 28 28 28 28 28 28 29 30 29 27 28 30 31 31 29 28 29 30 29 27 26 24 24 24 24 23 21 22 20 17 17 17 16 16 17 19 21 22 22 20 19 18 18 18 18
4 3 2 2 3 3 4 1 2 2 2 1 2 3 3 5 5 3 3 2 5 11 13 14 16 18 19 21 23 24 24 24 26 27 26 25 26 26 26 25 25 26 26 26 27 27 27 27 27 28 28 27 27 27 27 27 27 27 28 30 30 29 28 29 29 28 28 29 28 28 30 29 27 26 26 25 27 26 24 25 24 22 21 20 19 18 18 19 22 24 24 23 21 20 20 20 21
3 2 2 3 3 2 2 2 2 2 2 1 3 1 6 7 7 5 2 3 3 8 11 13 14 16 17 19 21 23 25 26 27 27 25 25 24 24 24 24 24 25 26 26 27 27 27 27 27 27 27 27 27 26 26 26 26 26 27 28 30 31 31 31 30 28 28 33 32 28 29 31 31 30 27 25 27 27 26 27 28 27 25 23 24 23 20 20 22 24 25 24 24 23 23 23 23
5 3 3 2 2 3 3 3 2 3 3 1 1 2 9 10 12 15 14 10 10 13 13 14 16 18 19 20 23 24 26 28 28 25 23 24 24 24 24 23 23 24 25 25 26 26 27 27 27 28 28 28 27 26 26 26 26 26 27 28 30 31 32 32 33 32 31 34 35 31 29 30 31 32 30 29 32 32 26 27 33 34 29 27 29 27 22 21 22 24 25 26 26 26 25 24 25
9 7 5 5 3 4 5 4 4 1 3 2 4 4 8 10 10 15 20 16 14 17 18 20 22 23 24 25 27 29 30 32 29 26 25 24 24 23 23 23 23 23 24 25 25 26 26 26 27 28 28 28 28 28 27 27 27 28 28 29 31 33 33 32 33 34 32 33 35 33 32 32 30 29 30 31 37 37 29 27 34 37 32 29 32 31 26 22 21 24 26 28 29 30 28 26 27
8 6 5 4 4 2 3 3 5 1 4 3 3 4 8 11 10 15 23 18 12 17 20 23 26 27 28 29 30 31 32 32 30 28 26 24 24 24 24 23 23 24 24 24 25 25 24 25 26 27 27 28 29 29 29 29 29 29 30 30 31 32 33 34 33 34 33 32 34 33 32 34 33 31 31 32 36 38 33 30 34 38 35 31 33 34 30 24 21 24 27 28 30 31 31 29 30
6 6 5 2 2 3 2 2 4 3 1 3 2 3 9 11 11 15 20 13 12 20 22 26 30 29 30 30 31 32 32 32 30 28 26 24 24 24 25 25 25 25 24 24 24 23 23 24 25 26 26 27 29 29 29 30 30 29 29 29 30 31 32 33 34 34 34 33 34 33 32 33 34 34 35 35 36 39 41 39 38 40 39 33 33 36 35 31 26 26 29 29 30 32 32 30 32
5 4 6 3 2 2 3 3 4 4 0 3 3 5 9 11 10 14 19 15 18 24 24 26 29 29 32 33 33 34 34 33 31 29 26 25 26 26 27 26 25 25 24 25 25 24 25 24 24 24 26 27 27 28 29 30 30 29 29 29 30 31 32 33 34 35 35 35 35 34 33 33 33 34 34 33 35 39 43 42 38 38 37 34 36 39 39 37 33 31 32 31 31 33 33 32 33
4 4 6 3 2 1 1 2 3 3 2 1 3 5 8 8 7 11 18 18 20 24 25 27 29 31 34 35 35 36 36 35 31 28 24 23 24 26 27 26 24 25 25 26 26 26 26 24 22 22 23 25 25 27 28 29 29 30 30 31 31 32 32 33 34 36 36 36 36 35 35 35 34 34 34 33 35 37 39 40 39 38 39 40 41 43 44 43 40 37 35 33 33 34 34 34 35
1 3 6 4 3 4 3 1 1 2 3 3 3 5 6 5 5 7 8 7 11 15 18 22 25 27 29 30 31 32 33 33 29 23 19 18 19 21 22 23 23 24 25 25 24 24 23 22 21 21 21 22 24 25 27 28 30 31 32 32 33 34 34 34 35 36 37 37 37 37 37 37 37 35 35 36 38 39 38 39 41 40 39 42 45 46 48 49 45 41 39 37 35 33 32 33 36
1 3 6 6 7 6 2 2 4 4 4 4 5 4 6 5 5 7 5 5 6 7 9 17 22 22 24 26 26 25 24 24 22 18 16 14 13 14 17 19 21 21 21 20 20 20 20 19 19 19 20 21 22 24 26 28 29 31 32 33 33 34 34 35 35 35 35 36 36 36 37 38 39 38 38 38 40 42 40 37 40 41 39 41 44 47 50 51 47 41 41 41 37 32 30 33 38
1 3 5 6 7 8 6 5 4 1 2 3 4 3 5 7 5 7 6 7 10 9 9 18 25 24 23 24 25 23 17 13 13 14 12 9 8 11 14 16 17 17 16 16 17 18 18 18 18 18 19 20 20 22 23 26 28 29 31 31 32 33 33 33 33 32 33 34 35 36 37 38 39 40 40 40 40 42 43 39 39 41 41 42 43 44 46 49 48 41 40 42 39 35 35 38 40
3 3 6 8 8 8 6 6 4 1 2 4 5 4 2 6 6 6 6 6 10 11 10 15 21 22 21 20 21 21 17 12 11 10 8 8 8 9 10 10 11 11 12 13 14 14 15 15 16 17 18 19 19 20 22 23 25 27 28 29 31 31 32 32 31 32 32 33 35 36 37 38 38 39 40 40 38 39 42 42 39 39 40 43 46 47 44 45 47 45 44 45 44 41 42 44 42
3 3 7 6 6 7 5 6 4 1 1 4 5 1 2 6 7 5 5 4 8 10 11 12 14 16 17 14 12 12 12 11 9 7 6 6 5 5 5 6 8 8 10 11 11 12 13 14 15 17 18 19 19 20 21 22 23 25 26 27 29 29 30 30 31 32 33 33 35 35 36 37 37 37 37 37 37 38 41 41 41 42 42 43 45 48 47 46 49 51 50 49 47 43 44 46 45
5 7 7 6 6 6 5 5 4 3 2 4 6 1 2 6 7 4 3 2 7 10 9 9 10 14 16 11 6 4 4 6 7 7 6 4 3 4 5 5 7 8 9 10 11 12 13 14 15 15 17 17 18 19 20 21 22 23 24 25 26 27 27 28 30 31 31 32 33 33 35 35 35 36 36 36 37 41 43 43 45 47 47 46 46 47 48 50 53 54 52 50 46 43 46 49 49
11 8 7 7 7 6 4 3 4 3 3 6 6 2 1 4 6 4 3 4 6 5 6 7 9 18 20 12 5 3 7 9 9 7 4 2 2 4 4 4 5 6 8 10 11 12 12 12 13 14 15 16 17 17 18 19 20 20 21 22 23 24 24 26 27 28 28 28 29 30 31 33 34 35 36 37 38 40 43 45 47 48 48 48 49 48 47 50 53 53 52 50 46 44 47 49 49
8 5 5 5 4 4 4 5 4 1 5 6 4 2 2 4 6 5 5 6 6 6 6 7 9 18 18 11 4 4 8 9 9 8 5 3 1 4 4 4 5 6 7 9 10 11 11 11 12 13 13 14 14 15 15 16 17 18 19 20 20 21 22 24 25 25 25 26 26 27 28 29 31 32 34 36 38 39 41 44 47 49 50 50 51 51 49 48 49 50 50 50 49 50 48 46 48
5 5 6 5 2 2 2 3 1 3 6 4 2 2 3 6 9 9 11 12 7 7 9 9 10 15 12 7 2 6 10 8 7 6 5 4 0 3 4 5 6 6 6 8 9 10 10 10 11 11 12 12 12 13 13 14 14 15 16 17 18 19 20 22 23 23 24 24 25 26 27 27 28 29 31 34 36 37 39 41 44 47 50 51 52 51 50 48 48 49 51 53 55 53 48 48 52
4 5 5 4 3 2 2 4 2 4 4 3 3 2 3 5 6 9 14 14 9 8 13 12 12 14 9 5 2 3 6 5 3 3 3 1 0 3 5 6 7 7 7 8 8 8 9 10 11 11 11 11 12 11 11 12 12 12 14 15 15 17 19 20 21 22 22 22 23 24 26 27 27 28 28 30 32 35 37 39 41 45 49 51 51 51 48 46 47 49 51 53 54 50 45 48 53
2 3 5 5 5 5 4 4 3 4 3 3 3 2 3 3 2 6 12 15 15 15 16 13 12 11 10 8 6 3 3 3 2 2 3 3 2 3 5 6 7 8 9 9 8 8 9 11 11 12 11 11 11 11 11 11 11 12 13 14 15 16 17 18 19 20 20 20 21 23 24 25 27 27 27 28 30 33 37 38 39 42 46 47 47 48 47 45 46 47 47 48 47 46 46 47 49
1 2 5 3 4 5 3 3 5 3 2 3 3 3 4 4 6 9 10 12 14 13 12 11 10 8 9 10 9 6 4 4 4 4 4 6 6 5 5 5 8 9 10 10 9 9 9 10 12 12 10 10 11 11 12 12 12 13 13 14 15 16 16 17 18 18 18 19 20 21 22 24 25 27 27 28 29 31 34 37 37 38 40 42 42 45 46 45 45 46 46 45 46 49 50 49 50
2 2 3 5 4 7 5 2 1 3 1 4 2 4 5 3 6 9 7 8 11 11 10 10 9 7 8 13 13 8 4 3 5 7 7 8 8 6 4 5 8 10 11 11 10 10 9 9 11 11 11 12 12 12 13 13 13 14 14 15 15 16 16 17 17 17 18 19 19 20 20 22 24 25 27 28 29 29 30 33 35 35 36 38 38 40 43 44 44 44 45 47 50 51 49 49 51
4 3 5 4 2 4 4 2 3 4 2 5 1 4 5 2 4 7 6 4 9 10 10 11 11 9 10 13 12 7 6 9 11 10 8 7 7 5 4 6 9 10 11 11 12 12 10 8 9 11 12 13 13 13 14 15 15 16 16 16 16 17 17 17 17 18 18 18 19 19 19 21 22 23 25 26 27 27 27 29 32 32 33 34 34 34 37 40 40 41 44 48 49 48 47 48 50
4 4 4 4 3 2 2 2 2 1 2 4 4 4 3 4 5 5 3 4 7 9 10 9 10 11 12 13 13 13 15 16 13 10 8 5 2 2 3 6 8 9 10 11 12 13 10 8 6 7 10 11 12 15 16 17 18 18 18 18 18 18 18 18 18 18 19 18 18 18 19 20 20 22 23 24 24 25 26 27 29 32 32 32 33 34 35 38 39 40 42 44 44 45 47 49 49
3 3 3 2 2 4 3 2 4 3 3 3 4 4 3 6 6 6 8 8 6 7 8 7 10 14 13 12 17 19 17 11 5 6 8 6 3 4 6 6 7 8 9 9 9 8 7 5 5 5 6 7 10 14 17 19 20 20 20 20 20 20 20 20 19 19 19 18 18 18 19 19 19 21 21 21 22 23 25 26 28 30 32 33 35 37 38 39 41 41 43 44 45 46 48 50 50
3 3 3 2 1 2 2 0 2 4 4 2 2 4 6 6 4 8 10 9 8 8 6 6 10 11 9 12 15 14 8 4 6 7 10 11 7 5 4 5 5 6 8 7 6 6 4 4 3 3 4 6 8 11 15 19 22 24 24 23 23 22 22 21 21 20 19 18 18 18 18 19 20 20 20 20 21 22 23 25 26 28 30 32 35 37 37 37 38 41 42 44 45 46 48 50 50
6 6 6 7 4 4 3 2 1 2 3 4 3 4 8 6 5 7 7 7 8 7 5 5 5 4 7 8 9 10 8 7 7 8 10 11 10 9 7 5 3 4 6 6 5 5 4 3 2 2 4 7 9 10 13 16 20 25 27 27 27 25 25 24 22 21 20 19 19 18 18 19 20 21 21 21 21 21 23 24 26 27 29 31 33 35 36 36 38 39 41 42 43 44 47 49 50
Wind_Direction
262 270 272 261 303 60 353 353 124 6 65 94 134 142 221 197 202 146 131 137 102 341 188 151 130 141 142 130 147 120 110 153 156 138 187 152 147 157 157 159 160 157 152 150 154 152 149 147 145 142 134 123 111 96 86 82 77 76 76 75 74 75 76 75 75 75 74 78 84 87 88 90 92 94 97 99 96 98 104 102 101 104 103 99 97 96 96 94 94 93 91 89 85 83 83 84 87
252 256 134 147 41 19 283 35 91 348 57 116 250 164 241 328 132 173 176 189 146 115 111 115 115 114 103 110 113 91 84 126 151 140 140 141 148 158 162 161 158 157 152 150 155 154 151 150 150 147 142 132 118 102 93 89 82 79 79 77 76 75 75 74 73 73 72 74 83 88 88 92 95 96 97 101 102 103 103 100 102 106 103 99 99 97 97 95 94 94 93 89 82 79 78 81 88
219 96 98 139 78 38 181 50 78 78 89 167 252 242 251 143 183 205 195 153 131 118 106 103 98 84 82 95 79 79 80 103 138 135 138 147 155 160 163 161 157 159 154 151 156 157 154 152 153 153 149 137 125 111 103 99 90 84 83 82 80 79 77 76 73 72 72 72 79 85 90 93 91 90 91 92 92 99 100 97 100 104 103 100 98 96 97 96 95 94 92 89 82 79 79 83 90
84 104 110 137 122 48 76 53 125 123 137 192 237 258 237 180 198 218 170 138 134 123 108 104 78 51 61 97 91 92 99 125 141 143 148 155 160 159 160 159 159 161 156 155 158 159 158 157 156 158 155 141 131 121 113 108 99 92 89 88 86 84 81 80 78 75 74 74 78 83 93 94 91 89 87 83 79 90 96 92 93 101 104 100 96 95 97 95 95 93 90 89 84 83 86 89 92
99 137 148 175 299 70 88 72 109 119 182 182 168 254 241 199 192 190 154 146 152 142 133 126 91 88 90 96 93 111 132 140 148 152 153 156 162 160 157 158 161 163 161 160 161 162 163 163 161 161 156 146 139 131 123 113 106 100 96 96 94 92 87 83 82 78 75 74 76 85 97 100 101 100 97 97 92 88 91 89 87 96 104 102 100 99 98 97 95 94 90 88 87 89 94 96 95
117 134 152 218 64 106 119 127 152 172 211 165 152 245 228 201 184 159 143 148 168 164 154 147 140 130 96 73 69 128 138 145 156 155 153 156 163 162 159 160 162 164 165 164 165 165 166 168 166 164 160 153 149 141 131 118 109 104 102 102 100 98 93 87 83 81 77 75 76 85 96 102 110 110 109 109 107 99 92 93 88 92 103 105 104 102 100 98 97 98 96 91 92 96 99 100 99
130 134 136 119 70 53 109 152 192 194 199 167 172 212 195 194 180 150 135 134 141 154 162 158 143 127 101 84 92 135 141 151 159 156 156 160 164 165 163 162 165 166 167 169 169 168 169 172 170 169 166 163 160 152 138 124 115 109 108 106 106 105 100 94 87 83 79 78 78 84 91 99 110 114 116 115 116 113 96 97 97 94 103 107 105 103 101 99 98 99 101 97 99 104 105 103 101
132 137 82 109 61 29 87 121 209 185 152 206 214 191 180 180 170 156 144 142 147 166 162 155 144 111 130 127 126 154 153 160 160 158 160 164 167 169 167 165 168 169 170 172 172 172 173 175 175 176 174 174 170 161 148 135 126 118 115 111 111 110 106 102 95 87 82 80 80 82 87 94 104 113 121 123 124 118 104 103 106 106 107 111 109 106 104 101 102 102 103 100 100 105 106 106 104
139 145 55 88 97 30 47 36 246 211 271 239 216 181 178 174 167 155 140 133 145 156 154 159 159 120 169 142 137 161 163 165 162 162 165 168 172 173 169 168 173 173 172 174 175 176 177 179 180 181 182 183 177 168 158 144 138 133 129 123 120 119 116 113 108 100 90 84 81 83 85 90 99 109 123 130 130 127 121 118 115 118 118 121 118 109 109 110 111 109 105 102 100 103 106 107 107
132 116 99 78 89 45 18 314 283 234 270 252 211 185 175 172 171 160 146 137 148 151 156 170 190 148 159 141 139 155 160 166 167 168 170 172 175 175 170 170 177 178 176 175 176 178 180 184 184 185 188 188 183 176 166 153 147 145 142 136 132 130 125 124 118 110 103 91 84 84 87 90 94 103 117 128 135 138 133 136 135 131 132 134 128 117 116 118 118 112 106 106 105 104 106 107 108
117 67 103 75 75 100 192 220 274 266 280 317 274 197 177 172 167 162 154 143 153 154 159 174 167 141 141 136 149 157 162 170 173 172 174 176 177 174 172 173 179 184 183 178 177 179 182 187 187 188 191 191 189 182 174 163 155 153 152 145 138 137 129 128 122 112 106 95 86 83 86 91 91 97 107 116 125 130 135 149 154 143 143 143 135 128 123 125 123 116 110 107 105 104 105 107 108
145 34 84 87 137 183 194 175 245 276 317 333 230 194 179 172 162 166 159 151 158 157 167 185 176 148 126 140 164 163 167 172 176 179 179 179 178 172 174 177 179 186 189 184 181 181 184 190 190 188 192 194 194 190 185 173 165 164 162 155 144 140 133 129 124 117 109 97 89 84 87 91 91 95 98 106 115 121 127 144 154 148 150 149 140 138 133 133 128 118 113 109 106 104 105 106 109
163 127 99 111 165 161 160 150 233 303 334 271 202 185 180 178 185 179 159 149 160 156 178 195 175 154 125 186 174 170 170 176 180 187 187 181 180 175 176 179 180 187 192 191 186 187 188 192 193 191 193 196 198 197 194 185 177 177 176 172 158 149 141 137 132 125 119 108 97 89 90 93 93 93 93 99 107 115 122 134 148 150 153 152 148 149 144 139 129 119 116 114 111 108 106 105 109
157 145 120 124 114 128 148 137 213 165 250 250 201 185 183 192 201 178 158 148 173 169 176 183 173 157 150 177 184 180 171 177 184 189 192 186 185 182 179 182 184 186 192 195 193 195 195 197 198 196 198 199 202 201 198 194 187 185 187 184 173 166 156 150 146 137 132 122 109 100 93 94 96 96 95 98 104 113 124 132 143 151 153 154 158 157 149 140 128 122 119 118 115 111 109 107 111
150 132 105 102 84 130 165 159 158 156 228 223 185 186 180 202 206 177 166 160 177 172 160 170 177 178 197 181 195 190 173 175 185 189 192 189 191 193 188 188 190 189 191 195 196 201 200 202 202 202 204 203 205 205 201 198 195 192 192 192 187 181 175 166 161 151 146 137 124 112 98 97 101 107 110 108 111 116 130 138 145 150 152 158 164 161 152 142 131 125 122 118 114 112 111 110 112
150 127 81 85 128 177 176 166 125 138 238 196 173 178 168 203 193 180 179 168 164 165 163 177 188 218 221 185 181 189 174 173 183 187 191 190 193 199 198 196 196 195 194 197 199 202 203 205 206 206 207 207 208 207 206 204 202 200 196 198 197 192 190 184 176 168 162 156 142 129 111 103 107 122 127 124 123 124 138 144 148 152 155 165 167 162 155 144 135 130 125 117 112 109 111 111 109
148 114 70 78 167 190 186 170 164 170 219 192 172 174 158 176 183 184 188 178 166 165 178 191 194 218 226 190 155 178 176 174 182 187 191 193 196 201 202 201 201 200 199 201 202 203 205 206 209 210 209 210 211 209 210 210 208 205 203 202 202 201 201 199 194 185 178 177 171 154 133 117 117 136 141 139 138 134 143 146 151 159 164 170 169 164 158 147 140 134 129 121 115 111 112 114 109
144 108 101 181 184 197 189 175 190 169 174 187 181 179 165 153 176 179 177 172 166 165 187 190 194 213 206 190 180 179 179 178 182 188 193 197 200 202 203 202 205 206 204 204 204 205 207 208 210 212 212 211 212 213 212 212 213 211 209 208 208 209 208 209 210 205 197 193 199 197 174 153 138 148 153 150 153 147 150 152 154 163 168 171 169 166 161 153 146 139 135 127 122 119 119 120 114
129 102 116 211 202 203 192 181 194 176 175 184 180 182 173 165 170 172 174 165 160 164 189 189 197 204 188 190 192 182 182 182 185 190 195 199 202 204 205 205 208 211 209 208 206 206 208 210 211 213 214 214 214 216 216 215 216 215 215 214 213 214 214 215 217 217 212 206 210 219 225 211 179 168 166 161 165 162 159 162 165 167 171 174 172 169 167 161 156 150 146 139 132 129 128 132 123
147 115 127 236 211 202 216 210 204 199 199 177 173 180 174 169 170 173 177 161 168 189 191 189 197 194 185 185 182 183 186 187 189 193 198 202 205 207 209 208 211 215 214 214 210 208 209 211 212 214 215 216 218 219 220 219 218 219 219 219 219 219 219 219 221 225 221 215 215 220 231 228 204 185 181 176 175 175 174 174 176 176 177 178 175 174 175 172 169 165 161 155 147 140 141 144 139
170 136 177 224 186 166 214 219 208 211 211 183 169 163 169 174 175 179 164 140 232 223 203 202 203 193 185 180 178 184 190 191 193 197 200 204 207 210 213 214 217 220 219 219 216 213 213 214 215 215 216 218 220 221 223 222 222 223 222 223 223 223 223 222 223 226 225 222 219 221 226 224 214 202 192 186 182 183 187 188 186 185 185 182 180 182 184 184 182 179 175 172 163 153 155 161 161
139 162 234 181 157 146 201 192 190 206 197 177 162 153 172 174 182 192 171 164 228 226 216 214 213 204 198 192 184 186 193 196 197 200 203 206 209 212 216 219 221 222 223 223 221 219 218 219 219 217 218 220 222 223 225 225 225 226 226 227 226 225 226 225 225 226 228 226 223 223 225 222 216 213 202 191 189 190 192 197 197 193 192 189 186 189 192 194 192 192 190 185 182 173 176 185 182
144 246 296 150 176 174 137 146 166 176 170 169 165 163 170 165 188 205 192 205 221 229 233 222 221 217 212 205 194 193 197 200 203 206 208 209 211 214 217 219 222 223 225 226 225 224 223 223 223 221 221 222 223 224 225 227 227 228 229 230 229 229 228 228 227 226 229 229 228 226 227 227 221 218 213 201 194 195 197 200 204 203 200 198 196 195 199 202 201 200 200 198 199 194 198 202 197
131 170 227 130 166 154 99 114 148 164 173 174 170 165 172 169 181 209 212 224 226 237 247 226 225 221 214 211 206 206 206 207 210 212 214 215 217 218 219 221 224 226 229 229 227 226 227 226 226 226 224 224 225 224 225 226 228 229 230 232 231 231 231 232 230 228 230 232 232 229 227 228 225 222 221 215 204 202 205 203 205 211 210 206 204 203 204 209 210 208 208 208 208 208 210 210 208
107 153 183 126 113 136 99 101 137 156 169 171 170 165 180 183 180 224 227 229 226 232 238 226 223 219 217 216 216 217 213 214 215 215 216 219 222 222 223 224 227 229 230 232 231 230 229 228 229 229 227 226 226 226 227 227 228 230 231 233 233 231 233 234 233 231 231 232 234 233 230 227 226 224 222 223 215 209 211 207 206 213 218 215 213 212 211 214 219 217 214 214 215 216 218 217 213
179 140 150 127 95 124 116 111 126 142 151 161 171 148 162 187 222 261 241 234 225 224 223 220 217 215 218 220 223 224 222 222 220 219 219 219 220 223 225 227 229 231 232 233 235 235 234 232 232 233 232 230 229 229 229 229 230 231 234 235 234 233 233 234 234 234 234 233 235 238 235 229 227 227 225 224 221 217 216 214 212 214 220 221 221 221 219 219 223 227 226 224 225 225 223 221 215
159 123 113 103 95 119 136 135 123 131 136 155 174 166 193 168 196 258 245 231 220 216 214 216 214 212 216 221 227 229 230 232 229 226 222 220 220 223 226 227 231 234 233 233 234 236 237 236 235 235 235 234 232 232 233 233 233 234 236 237 237 236 234 234 234 235 237 235 235 238 238 234 230 228 227 225 222 221 221 220 219 220 223 225 225 226 226 224 224 228 231 231 234 233 231 226 216
141 124 98 51 65 102 118 138 134 128 121 150 161 167 307 120 201 236 223 215 217 215 215 218 219 218 220 224 229 231 233 234 234 231 226 225 225 226 227 229 234 236 236 237 235 235 237 238 238 237 237 237 235 236 237 236 236 237 238 239 239 240 238 236 236 235 237 238 237 237 237 236 233 231 227 224 224 225 225 224 224 224 226 229 230 228 229 229 227 227 229 232 235 235 233 228 216
129 118 102 356 14 51 97 129 147 145 129 149 129 74 290 234 227 229 215 219 220 214 218 221 223 226 227 229 230 231 233 232 232 233 231 231 232 234 234 236 239 239 242 243 240 238 237 238 239 239 239 238 238 238 240 240 239 239 240 241 241 242 242 240 239 238 238 239 239 239 239 235 234 236 232 224 222 228 231 229 231 232 229 230 233 233 231 231 231 230 230 233 234 235 233 227 217
117 82 101 31 12 360 279 93 149 149 139 159 135 195 274 255 241 232 212 216 218 216 220 223 227 230 231 233 233 233 234 232 232 234 233 233 234 237 240 242 241 242 245 243 242 242 241 239 239 240 240 239 240 240 241 242 241 240 241 242 241 242 244 245 244 242 240 239 239 240 241 238 234 236 240 233 226 228 232 234 238 241 236 231 232 236 237 235 235 235 235 235 235 235 233 227 220
95 60 62 60 111 267 297 13 152 141 167 187 131 176 261 267 270 250 218 230 245 238 226 224 228 232 233 234 236 239 239 237 238 239 238 238 238 241 244 244 243 244 245 243 244 246 244 242 240 240 239 239 240 240 241 242 243 242 241 243 242 240 241 244 246 246 244 240 239 239 240 240 237 235 239 241 238 235 234 236 239 238 241 239 232 234 240 240 237 237 236 237 236 235 231 226 221
40 101 316 346 160 257 310 304 164 147 187 165 118 199 264 270 294 11 220 240 246 237 230 226 229 232 234 236 239 244 246 244 244 243 242 242 242 244 246 246 245 245 246 246 247 246 246 245 243 241 239 239 239 240 241 242 243 242 240 242 246 245 242 241 242 246 247 243 241 242 243 244 241 238 237 239 242 243 241 240 240 240 244 247 242 236 239 241 240 237 236 235 237 237 233 227 221
1 103 191 257 166 258 315 307 222 140 148 49 86 217 266 282 287 46 66 285 233 225 228 228 233 238 239 241 244 247 250 249 248 247 246 244 243 244 246 246 245 245 247 249 249 248 248 246 245 244 241 240 240 241 242 243 243 241 238 238 243 248 249 248 247 248 249 248 247 244 245 249 250 247 242 240 240 243 247 244 241 241 239 243 249 248 247 246 243 239 235 233 234 236 236 231 222
304 49 116 222 185 195 279 288 304 58 116 299 16 253 252 275 281 281 314 327 275 242 238 236 239 244 245 247 249 250 253 254 253 252 251 250 249 248 248 246 245 245 246 248 249 250 250 249 249 248 246 244 243 242 243 244 244 242 240 239 240 243 246 249 250 249 245 247 254 252 246 248 249 245 246 251 247 243 247 247 244 240 235 239 243 243 248 249 245 240 236 234 233 233 235 232 225
194 185 142 206 214 204 239 250 259 45 75 229 27 297 265 272 284 280 273 278 282 274 266 261 258 255 253 253 254 256 257 258 256 255 257 258 258 256 254 251 248 245 245 246 248 249 250 250 250 249 249 248 246 245 244 245 245 243 241 240 240 241 243 242 243 244 240 240 249 254 252 250 248 243 245 255 252 241 241 248 247 239 235 243 240 231 233 238 239 238 235 235 233 230 232 232 228
175 177 144 155 177 227 242 253 267 115 110 221 218 237 270 276 286 283 275 278 283 278 276 273 268 264 261 258 258 258 257 258 259 259 261 261 261 261 258 255 251 248 245 245 246 248 249 249 249 248 247 248 248 246 244 243 242 242 241 240 241 242 242 241 240 242 240 236 239 244 248 251 251 249 248 254 251 240 238 251 251 240 236 244 243 233 231 234 240 240 235 235 233 226 225 226 226
143 132 110 144 162 238 249 269 306 68 137 251 243 236 270 273 275 276 275 282 282 273 272 268 265 262 261 260 260 259 258 260 262 262 260 259 259 259 258 255 251 248 246 245 246 247 249 249 249 249 247 247 246 245 245 243 242 242 242 243 245 245 244 243 243 243 241 238 238 240 241 242 245 247 246 250 252 245 245 255 254 246 242 246 250 243 236 237 243 245 240 239 238 231 225 222 222
106 130 125 124 166 224 242 245 314 7 148 260 345 303 270 264 268 271 272 275 263 258 257 259 261 261 261 261 262 262 263 264 265 263 261 259 258 256 254 252 249 248 247 248 249 251 251 250 251 251 250 249 247 248 248 247 247 247 248 251 252 252 250 248 247 246 244 243 243 244 242 240 241 244 244 246 249 248 248 250 249 246 241 242 250 248 239 237 239 243 243 240 239 234 230 230 227
86 120 129 134 190 230 288 296 326 13 22 259 347 334 274 262 263 264 260 251 251 253 250 254 259 261 262 263 262 264 265 266 267 267 266 264 261 257 253 250 249 249 249 249 250 250 250 250 252 253 253 252 250 250 250 251 251 251 253 255 255 255 255 253 252 249 247 245 246 247 245 244 244 245 246 245 245 247 247 247 247 247 245 245 251 250 242 237 237 241 242 240 240 234 229 232 233
87 108 129 163 234 139 204 279 328 18 63 260 316 308 278 276 281 270 261 252 253 257 255 256 258 259 262 263 263 265 266 267 269 270 272 269 263 258 254 252 252 253 252 250 249 249 249 250 252 254 255 256 255 254 253 254 253 251 251 253 253 254 255 255 253 251 249 247 247 246 244 244 246 246 247 247 246 247 249 251 252 253 253 252 253 251 245 240 239 240 238 237 239 234 228 231 233
56 133 138 162 201 171 186 265 351 9 21 30 3 321 291 308 320 284 277 269 257 257 258 258 254 255 260 264 265 265 265 266 268 271 276 277 266 255 252 252 253 253 253 252 252 252 252 252 253 254 255 257 257 256 255 253 252 251 250 250 250 251 251 251 250 250 250 249 249 248 245 244 244 245 246 249 251 251 250 251 253 255 254 251 249 247 244 242 241 241 239 237 238 236 237 240 236
289 207 174 177 170 156 146 55 59 38 356 351 26 354 288 315 315 272 296 341 295 275 274 267 261 259 262 267 269 271 271 267 265 272 282 281 261 242 239 240 243 246 248 251 253 253 253 253 252 252 253 254 256 256 256 254 253 252 252 251 250 251 251 252 252 253 253 254 255 254 252 250 248 248 247 247 251 255 255 251 250 253 254 253 250 247 246 243 239 240 241 237 236 240 251 251 242
193 227 170 150 128 122 123 99 75 81 261 318 43 112 267 309 293 265 309 334 305 300 291 274 271 272 274 275 273 274 276 268 264 275 286 282 251 231 230 233 237 241 244 246 248 248 249 248 249 249 250 252 253 256 256 255 254 254 254 255 255 256 257 258 260 260 260 261 261 259 257 256 254 254 252 249 248 251 254 252 249 249 249 251 249 246 250 247 239 242 247 241 236 241 254 254 245
199 213 124 118 113 125 133 101 87 200 238 328 14 113 245 296 266 272 332 332 304 297 284 278 280 286 292 288 279 275 273 267 267 272 275 275 261 243 239 240 241 240 239 241 242 244 245 246 247 249 251 252 252 253 253 254 255 255 257 258 259 260 261 264 265 264 264 264 262 262 261 260 258 257 256 254 250 246 245 245 248 251 248 248 247 244 248 248 242 246 248 240 235 240 251 253 246
225 178 113 113 115 122 116 94 92 17 352 312 318 115 200 274 273 307 346 316 290 280 269 275 290 309 319 307 285 277 273 261 248 244 248 260 258 240 237 235 232 228 225 229 232 234 236 238 242 244 247 251 252 252 252 253 255 256 258 259 260 261 263 265 266 264 264 264 263 263 262 261 260 258 257 254 249 245 243 242 246 252 250 248 249 248 248 244 241 245 247 240 236 244 252 250 244
166 136 92 76 70 78 78 86 98 41 17 250 262 217 186 267 284 319 358 270 260 263 267 265 287 327 343 336 304 252 221 199 196 209 221 233 230 211 213 212 214 217 214 215 218 222 226 230 235 240 244 248 251 253 254 255 256 257 258 260 261 263 264 264 264 264 263 263 262 262 261 260 259 258 257 252 245 242 242 243 246 250 252 250 250 251 250 246 243 243 245 241 241 252 259 252 243
137 113 68 59 33 32 45 49 79 56 312 253 252 251 177 264 280 266 206 219 225 245 291 286 301 334 351 354 338 173 161 164 174 184 179 183 235 213 211 216 214 212 208 210 213 215 219 224 230 238 243 247 251 253 256 257 258 260 260 262 264 265 266 265 264 264 264 264 263 263 262 262 261 259 257 255 250 245 243 243 246 248 251 251 251 251 250 250 248 247 244 240 243 257 262 253 244
116 91 85 84 5 10 26 1 40 91 257 259 260 255 177 220 261 254 238 258 238 223 269 275 299 329 347 358 353 126 138 149 159 159 129 82 240 215 216 225 216 209 206 206 207 207 211 221 233 242 246 249 253 255 258 259 260 262 263 264 266 267 266 265 265 266 266 266 267 267 265 263 262 260 259 257 255 253 249 246 245 246 248 249 250 250 249 249 250 251 247 243 249 258 257 251 247
76 92 102 93 11 10 1 318 338 218 243 266 266 221 204 231 250 257 263 270 254 222 241 253 289 314 331 352 7 122 128 136 145 140 107 75 71 219 218 224 217 212 209 207 205 207 218 232 243 253 256 258 258 259 261 262 263 264 265 266 266 266 264 263 265 266 268 269 271 270 268 267 265 262 260 259 257 256 255 252 246 244 246 247 248 250 249 248 248 250 249 248 250 251 250 251 251
120 131 125 123 121 102 264 265 281 261 255 277 264 236 251 258 257 249 251 260 267 264 261 269 297 303 294 288 285 133 127 129 140 144 130 95 344 217 221 225 218 214 214 211 210 221 242 254 262 267 266 263 262 264 264 261 260 260 261 262 261 260 261 262 265 266 268 270 272 274 275 274 272 269 265 262 260 258 257 255 250 245 245 246 246 248 249 246 247 249 251 250 249 248 253 256 253
174 161 129 141 155 153 204 219 213 242 273 296 280 254 199 206 262 246 247 268 279 275 273 281 295 289 269 268 273 234 176 176 203 217 219 249 264 228 227 225 219 219 218 217 223 244 263 270 273 273 268 265 263 262 256 249 248 250 251 252 254 257 260 262 265 267 268 270 272 276 278 280 279 279 276 271 266 261 256 254 250 246 246 246 244 244 245 245 245 248 251 251 251 253 257 257 253
239 126 107 153 183 142 136 181 177 176 316 310 257 237 214 208 283 277 269 286 289 279 279 286 291 282 263 265 272 261 235 231 262 278 266 260 256 245 240 228 220 219 220 226 238 254 264 266 265 264 262 260 256 251 245 241 240 242 244 247 251 255 259 261 265 268 270 272 274 276 279 282 283 283 283 280 275 267 259 253 250 247 245 245 244 241 241 243 245 247 250 251 251 252 254 254 253
169 120 176 217 174 112 112 201 64 82 254 275 225 252 292 326 296 291 297 298 295 294 288 280 278 273 260 266 275 276 271 289 300 292 276 265 257 254 252 225 216 218 224 234 244 249 248 245 248 251 250 250 251 247 243 241 241 241 244 248 252 255 257 261 265 268 270 271 272 275 278 281 284 286 286 285 281 273 263 253 249 247 242 241 244 242 239 242 244 245 247 248 249 251 254 256 257
124 171 207 198 129 91 107 172 7 43 243 275 271 242 286 329 277 310 347 293 274 280 277 272 272 273 267 267 272 285 320 326 323 320 311 291 273 262 246 212 206 214 225 234 243 246 240 230 234 243 247 250 253 250 243 241 241 240 242 245 248 252 255 257 261 264 266 268 270 274 279 282 285 288 287 285 281 274 264 253 246 246 243 240 242 243 241 241 243 245 249 252 254 255 255 257 259
128 178 165 119 143 167 94 143 174 140 236 278 300 278 257 208 227 290 304 225 239 260 265 268 271 270 267 273 293 318 326 324 328 345 357 342 291 203 180 186 193 204 219 231 242 248 245 238 239 247 255 261 264 262 254 248 244 243 244 246 247 249 251 253 257 261 263 265 270 273 277 282 285 286 286 284 280 273 263 254 246 242 241 238 240 243 244 245 246 247 252 255 256 255 255 257 259
67 114 111 87 136 165 166 155 162 170 197 254 309 326 262 223 212 213 223 223 224 244 255 249 246 253 268 304 330 332 326 331 2 29 26 32 83 129 136 150 170 189 204 215 224 234 241 245 249 259 268 277 283 282 275 267 259 253 251 252 252 252 253 255 257 259 262 265 270 274 276 281 284 283 283 281 278 272 263 255 249 243 240 237 237 240 243 247 248 249 251 253 254 255 255 257 259
115 138 166 195 83 106 166 151 117 143 160 193 283 299 266 246 206 192 210 224 217 216 226 231 236 254 301 340 345 339 340 43 81 56 33 36 48 60 89 121 157 182 189 192 198 209 221 231 243 260 277 292 301 300 293 285 275 266 261 259 258 258 257 257 257 258 262 266 269 274 279 282 282 281 280 278 275 271 263 255 249 244 243 242 239 238 240 245 249 251 252 254 255 255 256 258 259
164 180 193 185 159 124 156 243 271 115 146 173 185 271 268 248 203 194 205 220 223 221 234 259 271 309 346 359 9 18 47 91 92 59 40 36 30 14 4 357 318 256 215 209 224 231 225 225 246 278 303 314 317 313 306 299 289 277 270 266 264 263 260 258 258 258 261 265 269 275 280 282 283 283 281 277 273 269 260 252 246 243 242 243 242 241 242 245 249 251 253 255 256 257 258 260 261